Location: Park River
(40.8000°S, 175.4000°E)
Time: 09:58:41
(UTC+00:00)

Daily predictions for brighter satellites

Satellite Brightness Start Highest point End
(mag) Time Altitude Azimuth Time Altitude Azimuth Time Altitude Azimuth
USA 229 DEB 3.9 12:03:55 10° SSW 12:09:34 62° S 12:09:34 62° S
USA 229 3.9 12:03:57 10° SSW 12:09:40 62° S 12:09:40 62° S
USA 215 3.6 12:12:59 10° SE 12:19:28 61° SW 12:20:08 58° WSW
Resurs 1-4 Rocket 3.5 12:23:13 32° SE 12:23:13 32° SE 12:27:01 10° S
ATLAS 5 CENTAUR R/B 4.4 12:25:18 23° E 12:25:18 23° E 12:29:00 10° ESE
Cosmos 2082 Rocket 4.1 12:19:23 10° SW 12:21:53 21° WSW 12:21:53 21° WSW
IDEFIX/ARIANE 42P 4.4 12:25:54 23° SE 12:25:54 23° SE 12:29:26 10° SSE
Cosmos 2369 Rocket 3.1 12:48:07 46° S 12:48:07 46° S 12:52:20 10° SSE
Cosmos 1943 Rocket 4.2 12:51:19 18° WSW 12:52:05 19° SW 12:55:57 10° S
USA 267 3.3 12:53:27 73° SSE 12:53:27 73° SSE 12:59:43 10° SW
Lacrosse 5 rocket 4.0 12:54:47 18° SSW 12:55:10 18° SSW 12:58:23 10° SSE
ATLAS 5 CENTAUR R/B 3.9 12:59:55 35° SE 12:59:55 35° SE 13:04:56 10° SE
CZ-2D R/B 3.2 13:02:58 42° S 13:02:58 42° S 13:06:30 10° S
SL-4 R/B 4.4 13:30:33 23° ESE 13:30:33 23° ESE 13:32:25 10° SE
ADEOS II 2.9 13:30:00 48° S 13:30:00 48° S 13:33:49 10° S
Cosmos 2173 Rocket 4.2 13:35:34 72° S 13:35:34 72° S 13:41:21 10° S
Lacrosse 4 Rocket 4.3 13:37:04 11° SSW 13:37:04 11° SSW 13:37:47 10° SSW
Cosmos 1459 Rocket 4.2 13:46:33 62° SSW 13:46:33 62° SSW 13:51:50 10° S
Cosmos 1452 Rocket 4.3 13:45:26 10° S 13:50:21 47° ESE 13:50:21 47° ESE
Cosmos 1725 Rocket 3.9 13:58:58 81° SSE 13:58:58 81° SSE 14:04:56 10° S
Meteor 2-19 Rocket 4.5 13:52:32 10° S 13:58:34 74° ESE 13:58:34 74° ESE
Resurs 1-4 Rocket 3.9 14:04:18 21° SW 14:04:18 21° SW 14:06:37 10° SW
BREEZE-M DEB (TANK) 3.5 14:03:03 66° NE 14:03:03 66° NE 14:16:38 10° ESE
Cosmos 1864 Rocket 4.4 14:04:33 77° SW 14:04:33 77° SW 14:10:32 10° S
IDEFIX/ARIANE 42P 3.9 14:06:42 29° SW 14:06:42 29° SW 14:09:36 10° SSW
IRS-1D 4.0 14:06:02 55° SE 14:06:02 55° SE 14:10:33 10° S
ATLAS 5 CENTAUR R/B 2.8 14:06:39 69° W 14:07:25 75° SW 14:14:36 10° SSE
ALOS 3.2 14:10:38 43° ESE 14:10:38 43° ESE 14:15:01 10° S
ISS -0.7 14:19:34 15° S 14:20:10 15° S 14:22:17 10° SE
BREEZE-M (TANK) 4.4 14:20:42 51° NNE 14:21:55 56° NE 14:43:53 10° ESE
Meteor 1-21 4.1 14:23:31 81° E 14:23:31 81° E 14:29:09 10° SSE
Cosmos 1656 3.9 14:24:11 63° ENE 14:24:13 63° ENE 14:29:53 10° SSE
SL-16 R/B 4.2 14:20:07 10° SE 14:25:07 25° E 14:28:11 17° NE
BlueWalker 3 3.6 14:27:33 33° SSE 14:27:33 33° SSE 14:30:09 10° SE
Cosmos 2061 Rocket 4.1 14:26:48 65° W 14:27:00 65° W 14:33:30 10° S
Okean 1-7 4.5 14:29:01 31° SSW 14:29:01 31° SSW 14:31:44 10° S
Cosmos 2297 Rocket 3.3 14:22:56 10° S 14:28:20 42° ESE 14:33:24 11° NE
Cosmos 1110 Rocket 4.0 14:24:27 10° SSW 14:29:48 76° ESE 14:29:51 76° ESE
Cosmos 2233 Rocket 3.8 14:32:45 74° WNW 14:33:05 76° W 14:39:20 10° S
ATLAS CENTAUR R/B 3.7 14:36:09 14° E 14:36:09 14° E 14:37:23 10° ESE
Okean 2 4.3 14:36:46 48° SSE 14:36:46 48° SSE 14:39:53 10° SSE
Cosmos 2227 Rocket 3.9 14:31:32 10° S 14:36:34 31° ESE 14:41:32 10° ENE
Cosmos 2242 Rocket 4.1 14:38:39 56° SSW 14:38:39 56° SSW 14:42:26 10° S
COSMOS 2455 4.4 14:37:28 22° NE 14:39:25 26° ENE 14:44:14 10° SE
CZ-2C R/B 2.5 14:43:55 60° ENE 14:44:21 64° ESE 14:49:03 10° S
MOZ.5/SAFIR/RUBIN 5/SL-8 3.9 14:42:36 10° S 14:46:59 67° SW 14:46:59 67° SW
Cosmos 1980 Rocket 4.1 14:49:32 15° NE 14:52:25 22° E 14:56:37 10° SE
Cosmos 1697 Rocket 3.3 14:53:29 39° NNE 14:54:56 48° ENE 15:00:22 10° SE
Lacrosse 5 4.2 14:55:22 12° NE 14:56:50 13° ENE 14:59:08 10° E
Okean 2 Rocket 4.2 14:56:24 10° S 15:00:45 42° ESE 15:03:03 24° NE
YAOGAN 6 4.4 15:00:16 23° ENE 15:01:27 28° ESE 15:04:32 10° SSE
Tsikada Rocket 4.4 14:55:30 10° SSW 15:01:29 45° W 15:01:52 44° W
FENGYUN 3A 4.2 15:02:37 43° W 15:02:37 43° W 15:07:20 10° SSW
Meteor 2-10 Rocket 3.9 14:58:51 10° S 15:04:18 68° E 15:07:23 27° NNE
Cosmos 1300 3.1 15:01:15 10° S 15:05:02 56° E 15:05:07 56° E
SL-4 R/B 3.8 15:05:50 25° SW 15:07:28 31° SSW 15:11:42 10° SE
SAR-Lupe-2 3.9 15:08:52 64° SE 15:08:52 64° SE 15:12:18 10° S
ADEOS II 4.4 15:10:55 10° WSW 15:10:55 10° WSW 15:10:55 10° WSW
Cosmos 2219 4.4 15:05:12 10° S 15:10:44 43° ESE 15:16:12 10° NE
PAYLOAD A 4.1 15:14:50 50° NNW 15:16:10 67° WNW 15:21:39 10° SSW
Cosmos 1953 2.3 15:13:18 10° S 15:17:24 80° E 15:17:56 65° NNE
Cosmos 1674 Rocket 4.0 15:17:09 40° NNE 15:18:30 59° E 15:22:53 10° SSE
Meteor 2-14 Rocket 4.4 15:14:25 10° SSW 15:20:34 64° W 15:22:45 40° NNW
Cosmos 1072 Rocket 4.5 15:19:30 35° N 15:22:27 86° W 15:28:59 10° S
IRS-P3 Rocket 4.5 15:20:04 33° N 15:22:33 82° WNW 15:27:53 10° SSW
SL-24 DEB 4.5 15:23:48 49° W 15:24:01 49° W 15:28:40 10° SSW
Meteor 1-16 Rocket 4.1 15:20:19 10° SSW 15:25:40 60° W 15:27:14 43° NNW
Meteor 2-16 Rocket 4.4 15:21:18 10° S 15:27:30 84° E 15:32:40 15° N
CZ-2C R/B 2.8 15:28:19 23° NNE 15:31:23 87° ESE 15:36:14 10° SSW
Cosmos 1269 Rocket 4.0 15:31:25 39° NNW 15:33:26 88° WSW 15:38:49 10° SSE
ARIANE 5 R/B 2.5 15:29:38 16° NNE 15:33:46 85° ESE 15:38:59 10° SSW
Okean 1 Rocket 4.1 15:29:35 10° S 15:33:52 46° ESE 15:38:07 10° NNE
Cosmos 1302 Rocket 4.0 15:33:17 10° SSW 15:38:29 61° WNW 15:41:23 25° N
Cosmos 614 Rocket 4.0 15:37:24 32° N 15:39:48 78° ENE 15:44:59 10° SSE
Cosmos 1484 Rocket 2.5 15:44:15 35° N 15:45:43 81° WNW 15:49:29 10° SSW
ALOS 3.9 15:49:05 18° WSW 15:49:05 18° WSW 15:51:24 10° SW
Nadezhda 4 Rocket 4.0 15:42:42 10° S 15:49:04 84° W 15:55:24 10° N
USA 290 3.9 15:47:32 18° NNE 15:49:13 29° ENE 15:52:08 10° SE
ATLAS 5 CENTAUR R/B 4.4 15:48:00 12° W 15:53:08 23° SW 15:58:25 10° SSE
Cosmos 44 4.1 15:54:27 27° WNW 15:56:50 44° SW 16:01:52 10° SSE
ISS -2.5 15:54:19 10° SW 15:57:37 44° SSE 16:00:52 10° ENE
Cosmos 1378 Rocket 3.9 15:56:47 33° NW 15:58:18 47° WSW 16:02:37 10° S
IRS-1C 4.4 15:56:37 20° NNW 16:00:06 48° W 16:05:19 10° SSW
Meteor 1-28 Rocket 3.8 15:57:28 10° S 16:00:56 37° WSW 16:01:48 32° WNW
Cosmos 2151 Rocket 3.9 15:56:41 10° SSW 16:00:57 44° W 16:02:51 27° NW
NOSS 3-4 (A) 3.5 15:55:33 10° SW 16:02:34 86° WNW 16:08:38 10° NNE
NOSS 3-4 (C) 3.5 15:55:39 10° SW 16:02:41 87° WNW 16:08:45 10° NNE
Spot 4 Rocket 4.3 15:57:43 10° NNE 16:02:51 73° ESE 16:08:04 10° S
BlueWalker 3 4.5 16:03:06 10° SW 16:05:42 16° SSW 16:08:18 10° SSE
Sich 1 Rocket 4.5 16:03:35 10° SSW 16:07:27 29° W 16:08:37 26° WNW
SL-16 R/B 2.8 16:02:55 10° S 16:08:58 53° WSW 16:13:15 19° NW
Cosmos 2297 Rocket 3.1 16:07:22 10° SW 16:12:08 28° WNW 16:15:01 18° NW
Meteor 1-24 Rocket 3.9 16:06:59 10° N 16:12:45 83° E 16:18:46 10° S
Cosmos 1867 3.5 16:07:28 10° SW 16:12:52 67° WNW 16:18:13 10° NNE
ATLAS CENTAUR R/B 1.9 16:11:57 26° W 16:13:22 37° SW 16:16:52 10° SSE
Lacrosse 5 rocket 4.4 16:13:45 10° SSW 16:16:34 16° SSE 16:19:20 10° ESE
Helios 1A 4.4 16:12:51 10° SSE 16:16:49 37° E 16:20:46 10° NNE
H-2A R/B 2.7 16:14:12 10° N 16:17:56 62° W 16:21:42 10° SSW
Cosmos 2227 Rocket 2.6 16:15:23 10° SW 16:20:40 39° WNW 16:25:53 10° N
CZ-2C R/B 4.2 16:23:16 12° W 16:23:16 12° W 16:24:59 10° WSW
COSMOS 2455 3.2 16:20:38 18° NW 16:24:57 52° SW 16:30:52 10° SSE
Envisat 3.9 16:24:29 15° NNW 16:27:57 29° W 16:32:25 10° SW
CZ-2C R/B 3.6 16:24:16 10° SSE 16:29:20 47° E 16:34:19 10° N
Delta 2 Rocket 4.3 16:26:59 17° WNW 16:30:38 48° N 16:35:51 10° ENE
SL-16 R/B 3.7 16:25:57 10° N 16:31:04 36° ENE 16:36:14 10° SE
Cosmos 1703 4.3 16:27:19 10° NNE 16:31:07 48° E 16:34:58 10° SSE
Helios 1B rocket 3.3 16:29:08 14° NNW 16:31:52 28° W 16:35:27 10° SW
Cosmos 2251 Rocket 3.6 16:26:57 10° NNW 16:32:13 80° ENE 16:37:31 10° SSE
Cosmos 1140 Rocket 3.8 16:29:14 10° N 16:34:24 71° ENE 16:39:41 10° SSE
YAOGAN 6 4.2 16:34:18 15° W 16:34:39 16° W 16:36:51 10° SW
Cosmos 1025 Rocket 3.0 16:30:56 10° N 16:35:21 83° W 16:39:49 10° S
Cosmos 1980 Rocket 2.5 16:31:19 14° NW 16:35:58 52° WSW 16:41:30 10° SSE
Cosmos 1455 Rocket 3.2 16:31:56 10° S 16:36:29 83° E 16:40:59 10° N
YAOGAN 11 4.3 16:32:29 10° S 16:36:58 59° WSW 16:41:26 10° NNW
Lacrosse 5 1.9 16:34:35 13° NW 16:39:05 86° NE 16:44:14 10° SE
Cosmos 1697 Rocket 4.0 16:35:14 13° WNW 16:39:07 26° SW 16:43:50 10° S
Cosmos 407 Rocket 3.9 16:34:30 10° N 16:39:47 67° ENE 16:45:09 10° SSE
Cosmos 1455 2.3 16:36:13 10° SSW 16:39:49 48° W 16:43:24 10° NNW
Cosmos 2263 Rocket 2.3 16:40:33 10° SSW 16:46:20 89° ESE 16:52:03 10° NNE
SL-4 R/B 4.5 16:44:21 10° SW 16:48:00 21° S 16:51:34 10° SE
BREEZE-M DEB (TANK) 2.7 16:45:39 10° WSW 16:48:00 46° NNW 16:52:39 10° NE
Cosmos 2369 4.4 16:46:16 11° NW 16:51:25 40° WSW 16:56:49 10° S
Atlas Centaur 2 3.6 16:49:33 10° NNW 16:52:32 16° N 16:55:13 10° NE
Cosmos 2026 Rocket 4.2 16:47:05 10° SSW 16:53:11 53° W 16:59:09 10° NNW
Cosmos 2219 4.1 16:49:48 10° SW 16:54:38 28° WNW 16:59:26 10° NNW
Meteor 1-31 Rocket 4.2 16:52:54 10° NE 16:56:36 43° ESE 17:00:19 10° S
Cosmos 1238 Rocket 2.3 16:53:37 10° S 16:57:15 82° W 17:00:23 10° N
Cosmos 1461 3.4 16:56:48 10° NNW 17:00:59 59° ENE 17:05:00 10° SE
Cosmos 2142 Rocket 4.5 16:56:06 10° NNW 17:02:16 75° W 17:08:29 10° S
NOAA 12 4.3 16:59:11 10° NNE 17:04:32 86° ESE 17:09:57 10° SSW
Cosmos 1190 Rocket 4.4 16:59:42 10° N 17:04:53 69° ENE 17:10:08 10° SSE
Meteor 1-29 3.2 17:02:15 10° N 17:05:16 40° W 17:08:20 10° SSW
Cosmos 1634 Rocket 4.5 17:00:57 10° NNW 17:06:53 43° WSW 17:12:57 10° S
APEX 2.7 17:05:34 10° NW 17:08:20 56° WSW 17:11:28 10° SSE
CZ-2C R/B 3.3 17:06:19 10° NNW 17:09:56 36° W 17:13:33 10° SSW
FengYun 1-2 T 4.3 17:05:00 10° NNE 17:10:41 84° WNW 17:16:25 10° SSW
